Regional Weather Roundup
Issued by NWS Green Bay, WI

Home | Current Version | Previous Version | Graphics & Text | Print | Product List | Glossary Off
Versions: 1 2 3 4 5 6 7 8 9 10 11 12 13 14 15 16 17 18 19 20 21 22 23 24 25 26 27 28 29 30 31 32 33 34 35 36 37 38 39 40 41 42 43 44 45 46 47 48 49 50

917
ASUS43 KGRB 230601
RWRGRB

NORTH-CENTRAL AND NORTHEAST WISCONSIN REGIONAL WEATHER ROUNDUP
NATIONAL WEATHER SERVICE GREEN BAY WI
100 AM CDT WED AUG 23 2017

WIZ005-009-010>012-018-019-230700-
NORTH CENTRAL WISCONSIN

CITY           SKY/WX    TMP DP  RH WIND       PRES   REMARKS
IRONWOOD       MOCLDY    57  54  89 NW7       29.97R
MANITOWISH WTR NOT AVBL
ARBOR VITAE    NOT AVBL
EAGLE RIVER    NOT AVBL
LAND O LAKES   NOT AVBL
RHINELANDER    CLEAR     52  51  97 W5        29.97R
PHILLIPS       CLEAR     54  52  93 NW3       29.98S
ANTIGO         NOT AVBL
TOMAHAWK       NOT AVBL
MERRILL        NOT AVBL
$$

WIZ013-073-230700-
NORTHEAST WISCONSIN

CITY           SKY/WX    TMP DP  RH WIND       PRES   REMARKS
IRON MOUNTAIN  CLEAR     56  50  80 W8        29.89S
MARINETTE      CLEAR     57  52  83 VRB3      29.91R
$$

WIZ017-030-035>037-045-230700-
CENTRAL WISCONSIN

CITY           SKY/WX    TMP DP  RH WIND       PRES   REMARKS
MEDFORD        NOT AVBL
WAUSAU         CLEAR     56  50  80 NW10      29.97R
MOSINEE        NOT AVBL
MARSHFIELD     CLEAR     54  47  77 W5        29.99R
WISC RAPIDS    CLEAR     57  49  74 W7        30.01R
STEVENS POINT  NOT AVBL
WAUPACA        NOT AVBL
SHAWANO        NOT AVBL
CLINTONVILLE   NOT AVBL
WAUTOMA        CLEAR     55  50  83 W5        30.00R
$$

WIZ038-039-048-051-230700-
FOX VALLEY

CITY           SKY/WX    TMP DP  RH WIND       PRES   REMARKS
NWS GREEN BAY  CLEAR     58  52  80 W8        29.94S
APPLETON       NOT AVBL
OSHKOSH        CLEAR     59  49  69 W5        29.97R
FOND DU LAC    CLEAR     58  49  72 W8        29.98R
$$

WIZ022-050-052-230700-
EAST CENTRAL WISCONSIN

CITY           SKY/WX    TMP DP  RH WIND       PRES   REMARKS
EPHRAIM        NOT AVBL
WASHINGTON ISL NOT AVBL
STURGEON BAY   CLEAR     62  53  72 W9G17     29.92R
MANITOWOC      NOT AVBL
SHEBOYGAN      CLEAR     58  53  84 W7        29.96S
$$

LMZ563-521-522-541>543-230700-
LAKESHORE

STATION/POSITION TIME  TEMP    WIND        PRES    VSBY  WAVE
                       AIR SEA DIR/SP/G                  HT/PER
                 (UTC) (F)     (DEG/KT/KT) (MB)    (MI)  (FT/S)
SHEBOYGAN LKSHOR 0500   63     250/  9/ 11 1014.0R
KEWAUNEE LKSHORE 0530   61     280/  4/  6 1012.4R
NORTHPORT PIER   0540   63     300/ 13/ 18 1011.9R
N MID LAKE BUOY  0450   65 67  280/ 17/ 21 1011.0R         3/ 4
S GREEN BAY BUOY 0530   64 71  270/ 14/ 17 1012.8R
SISTER BAY LKSHO 0518   65     310/ 19/ 22   N/A
MENOMINEE LKSHOR 0530   60     260/  6/  9 1012.2R
$$




USA.gov is the U.S. government's official web portal to all federal, state and local government web resources and services.